Wind_Speed
79 81 82 82 82 85 89 91 93 92 88 86 84 84 82 79 77 74 73 69 70 66 66 63 62 59 55 53 51 49 46 45 48 43 43 43 43 43 43 42 42 42 44 46 46
75 73 71 73 76 82 90 93 97 96 92 90 86 85 85 80 78 76 74 69 71 68 66 65 63 60 57 54 52 49 50 48 49 47 46 47 47 47 47 46 47 48 47 47 48
62 62 61 63 67 75 87 97 98 98 95 91 89 86 86 81 78 77 75 72 70 69 67 65 63 63 60 58 55 52 52 53 54 52 53 51 50 53 53 51 51 52 53 52 52
54 53 51 54 60 69 81 93 99 100 97 94 91 88 86 83 80 80 76 76 69 71 68 66 65 62 61 60 57 57 56 53 53 54 54 53 51 53 54 54 55 55 55 54 54
44 44 43 49 55 67 79 89 100 101 99 96 93 89 85 84 81 79 78 75 72 69 68 67 64 64 62 61 59 57 56 55 55 54 54 54 53 54 55 56 56 58 60 60 61
31 32 37 41 51 65 77 88 98 101 101 97 93 89 86 84 81 78 79 77 74 69 70 69 68 64 64 63 60 57 56 57 57 56 56 57 58 57 57 59 60 62 62 62 63
21 25 32 40 52 63 75 88 98 102 102 95 93 90 88 86 82 79 77 76 74 71 67 69 69 68 64 63 62 60 58 59 57 56 58 59 61 60 60 61 62 63 62 64 66
13 22 30 40 51 62 75 88 97 102 102 95 93 90 87 83 81 77 76 76 73 73 69 67 65 67 66 64 61 60 61 61 61 61 61 60 63 62 63 63 65 68 68 67 69
8 19 30 39 51 63 74 86 95 101 101 96 91 89 85 81 79 77 75 74 74 73 72 67 62 59 61 61 64 64 61 62 62 62 63 63 66 65 67 67 66 68 69 69 70
10 17 28 38 51 63 71 83 91 97 97 93 90 89 84 80 76 75 74 73 71 71 68 66 64 63 62 60 61 63 65 63 62 63 65 65 66 66 68 69 68 69 70 71 71
12 21 29 37 47 57 67 78 85 93 95 90 87 86 81 77 76 73 72 71 71 70 67 65 62 62 61 64 62 61 63 63 62 63 65 66 66 69 70 71 70 67 67 70 71
16 22 29 36 46 55 63 70 77 86 92 89 85 82 77 76 73 72 71 70 69 67 66 64 60 58 59 60 59 56 56 58 60 57 51 53 58 61 60 64 65 65 67 69 72
18 23 30 37 43 51 59 66 73 83 88 84 81 79 76 74 72 71 68 68 67 65 64 63 63 62 62 59 58 58 59 60 60 61 60 59 61 64 65 66 68 68 71 74 78
18 22 28 36 42 49 58 65 74 80 83 78 76 75 75 73 70 69 68 66 64 65 64 62 63 64 61 59 60 60 59 57 57 61 62 64 60 70 69 72 74 76 78 81 83
20 21 27 33 40 48 56 64 72 77 75 72 72 71 72 71 68 67 67 65 63 63 64 64 63 63 64 63 61 62 64 64 65 63 64 70 67 74 78 79 80 82 81 81 83
24 25 27 32 38 45 54 61 69 73 69 67 68 68 68 67 66 65 65 65 64 63 63 67 66 65 66 67 66 66 67 67 68 71 72 75 74 77 79 81 81 82 83 84 83
28 28 29 32 38 44 51 56 62 66 64 63 65 65 65 64 63 64 64 65 66 66 65 64 67 71 70 70 69 71 75 75 74 74 75 76 76 77 79 82 84 85 84 84 83
26 29 32 32 38 43 49 53 57 59 59 59 59 60 60 58 58 59 61 63 64 65 65 66 67 69 70 71 73 74 74 74 73 74 76 79 79 81 82 82 83 82 83 83 84
25 23 26 31 34 40 46 52 55 55 55 53 52 53 53 54 54 56 58 60 61 63 64 66 68 70 71 71 72 74 75 77 77 78 78 80 81 82 81 80 80 80 80 81 82
22 20 21 21 26 32 40 45 48 49 48 49 50 50 50 51 52 52 54 56 57 58 60 62 65 69 71 72 73 74 75 76 78 78 78 78 79 79 79 78 77 78 78 79 79
14 18 18 19 20 20 26 32 38 43 44 45 45 46 47 47 47 49 50 49 51 52 53 54 56 60 62 64 66 67 69 70 72 73 73 73 75 75 76 77 76 75 77 78 80
10 12 14 16 19 20 20 24 29 32 35 38 40 40 42 43 42 45 44 44 47 48 49 51 53 56 58 60 63 64 66 67 68 69 69 71 70 73 72 72 72 75 78 80 82
7 10 13 15 17 19 21 23 26 27 29 32 34 36 37 38 39 41 42 42 44 45 47 49 51 53 56 58 60 62 63 64 64 65 67 67 70 70 71 72 75 78 79 81 81
9 11 13 15 17 19 23 25 27 29 30 32 34 36 37 38 39 40 41 43 44 46 47 49 51 53 54 55 57 60 63 63 63 63 64 66 69 74 73 76 79 79 80 81 84
18 16 16 16 18 20 22 24 27 29 30 32 33 35 36 37 39 40 42 43 45 46 48 49 52 54 55 56 57 58 61 63 64 66 65 68 71 75 79 81 82 83 84 87 90
25 24 24 23 23 23 22 23 25 26 29 31 33 35 36 38 40 42 43 45 47 48 49 50 52 53 55 56 58 60 62 65 66 67 69 72 75 78 82 86 87 87 88 91 95
30 30 30 31 31 30 30 31 31 31 32 33 33 35 36 38 39 41 43 45 47 48 50 52 53 55 57 61 62 63 66 68 70 72 75 79 81 83 86 88 90 93 96 99 102
Wind_Direction
266 260 253 246 239 231 223 220 219 218 219 218 216 215 214 216 216 217 217 217 217 218 220 222 224 226 226 226 225 227 229 235 242 242 243 247 249 253 257 260 262 268 273 277 280
267 260 253 245 237 229 222 217 216 217 216 217 215 214 213 214 216 216 217 217 217 218 221 222 224 227 228 229 230 229 230 235 243 244 244 252 254 257 262 264 265 268 273 275 279
267 259 252 243 233 224 218 214 214 214 214 214 214 213 212 212 214 215 217 217 218 219 220 222 224 227 230 231 232 233 236 237 241 247 249 250 256 259 263 265 266 270 274 275 278
269 261 248 236 227 218 213 212 211 210 211 212 212 211 212 211 212 215 216 217 219 218 221 223 225 227 231 233 234 234 236 239 243 246 250 253 255 261 264 265 267 270 272 274 275
262 255 241 226 216 210 207 206 208 208 208 210 210 210 211 211 211 213 216 217 218 219 222 224 226 228 230 234 235 237 239 241 243 245 251 256 256 257 263 267 270 272 275 278 279
259 244 228 216 208 204 202 201 203 205 205 207 208 209 209 211 211 213 216 218 219 221 223 224 226 229 232 234 237 239 243 246 246 249 253 256 258 260 263 267 270 273 276 278 280
254 231 215 205 201 198 197 197 200 201 203 205 206 207 208 210 212 214 216 218 219 221 225 224 226 230 233 236 238 241 244 248 251 254 256 258 261 264 266 269 272 274 276 279 282
240 209 201 197 195 193 193 194 196 198 200 203 205 206 208 209 211 214 216 217 219 220 223 226 227 231 235 238 241 242 246 250 252 254 258 261 263 266 269 271 273 275 277 280 281
198 192 191 190 188 188 190 191 193 196 198 201 203 205 207 209 210 213 215 218 219 221 224 228 230 232 236 240 244 244 247 250 254 256 258 261 264 266 268 270 272 275 278 279 281
147 167 176 181 183 185 187 188 192 194 196 199 200 204 206 207 209 212 216 219 220 221 224 229 232 234 238 242 244 246 249 251 253 257 260 261 264 268 271 272 273 276 280 283 283
124 148 161 171 177 180 183 187 190 191 193 196 200 204 206 208 209 213 216 219 222 224 226 230 233 237 239 243 246 248 248 250 253 258 263 266 270 269 271 272 276 280 282 283 285
111 139 152 162 170 176 180 183 186 188 191 194 197 202 204 208 210 213 215 219 222 225 228 231 234 235 237 242 246 247 248 250 254 255 261 267 271 275 276 278 279 280 281 282 282
108 134 147 157 166 172 176 180 183 187 190 193 197 200 204 207 209 213 217 220 222 223 228 232 233 236 240 242 246 250 251 255 258 261 264 266 269 273 275 277 279 279 280 281 282
100 127 144 154 161 167 174 178 179 184 189 192 196 200 204 207 209 213 218 222 224 225 226 231 236 236 239 242 246 248 251 256 260 263 267 269 269 271 273 273 276 279 281 282 284
92 119 139 150 159 166 173 176 180 183 188 191 195 200 205 209 212 215 219 223 226 229 228 230 236 238 241 243 246 251 256 259 263 263 264 266 269 273 274 276 277 280 281 282 285
93 111 130 145 155 163 169 174 180 183 188 192 196 202 207 211 214 217 221 225 229 231 233 233 236 240 244 247 249 252 255 257 260 265 269 270 272 271 275 278 280 282 284 286 286
98 112 126 141 150 160 166 170 178 183 188 194 198 204 209 213 216 219 223 226 230 233 237 240 241 243 245 248 251 254 259 262 266 268 269 271 273 274 276 279 281 282 283 284 285
93 110 125 138 149 159 165 170 178 185 191 197 202 207 212 217 220 223 227 229 233 236 239 242 245 248 251 253 255 258 261 264 266 268 270 272 273 275 277 278 280 281 283 283 284
78 101 120 134 149 159 167 175 182 189 196 202 207 211 215 220 224 228 231 235 237 240 242 244 247 251 253 256 259 261 263 265 267 269 271 273 274 274 275 277 279 281 282 283 285
93 97 107 131 148 164 175 180 188 195 201 207 212 216 220 225 229 234 240 243 245 248 250 251 252 255 257 258 259 262 265 267 269 270 271 273 274 275 276 278 278 280 281 282 282
104 110 122 134 143 158 172 185 196 202 209 214 220 226 230 235 239 244 247 250 252 253 253 254 255 258 260 262 263 264 265 267 269 270 271 273 275 276 278 279 280 280 280 280 281
133 136 144 152 162 170 175 181 190 200 208 216 222 229 235 237 243 246 248 248 250 252 252 253 255 257 259 261 263 265 267 268 270 272 274 275 277 277 278 279 281 280 281 282 284
166 172 174 177 183 183 187 197 201 207 214 219 225 229 234 238 238 243 247 247 249 250 252 254 255 257 258 260 263 266 268 271 273 274 276 277 276 277 277 279 279 280 281 283 286
209 197 197 204 206 205 203 207 213 216 220 223 228 232 236 238 242 245 247 249 250 252 253 255 258 260 262 264 267 268 270 271 273 273 275 278 280 281 282 281 282 284 286 288 289
227 224 220 215 211 215 219 222 223 227 229 231 234 237 240 244 246 248 250 253 254 256 257 259 260 262 263 264 266 268 270 273 274 276 278 279 281 283 284 285 286 287 290 291 291
231 232 233 234 232 230 229 231 232 233 236 238 240 243 245 246 249 251 252 254 256 258 259 261 263 265 268 269 270 272 273 275 277 279 280 280 282 283 285 286 287 289 288 288 289
234 234 237 239 241 240 240 238 239 239 241 242 244 246 249 250 252 254 256 258 259 260 261 263 264 265 268 270 271 273 275 277 280 282 283 283 283 283 283 286 288 289 290 292 294
Height
10657 10658 10663 10671 10682 10696 10709 10723 10736 10751 10767 10780 10791 10805 10818 10829 10840 10851 10860 10870 10878 10885 10891 10897 10902 10907 10912 10919 10925 10930 10935 10934 10932 10941 10941 10941 10942 10942 10944 10946 10945 10942 10943 10941 10941
10623 10625 10630 10638 10651 10666 10684 10701 10715 10733 10750 10766 10779 10793 10807 10820 10832 10842 10852 10862 10871 10877 10883 10889 10896 10902 10908 10913 10919 10923 10928 10929 10926 10931 10934 10933 10935 10935 10936 10939 10938 10936 10936 10934 10932
10593 10596 10602 10611 10624 10638 10658 10678 10695 10715 10734 10751 10766 10781 10796 10810 10822 10833 10844 10854 10862 10869 10874 10882 10889 10895 10901 10907 10912 10918 10920 10921 10923 10923 10925 10928 10927 10927 10928 10931 10930 10928 10928 10928 10926
10569 10571 10578 10587 10599 10616 10635 10657 10678 10698 10717 10737 10754 10771 10786 10800 10812 10824 10835 10844 10854 10861 10868 10876 10882 10888 10894 10899 10904 10908 10911 10914 10917 10917 10918 10920 10923 10919 10919 10922 10922 10920 10918 10919 10918
10551 10552 10558 10567 10580 10596 10616 10638 10662 10682 10703 10724 10742 10761 10778 10792 10804 10815 10826 10836 10846 10854 10862 10869 10875 10881 10885 10889 10895 10900 10904 10907 10909 10911 10912 10911 10914 10914 10913 10912 10912 10909 10907 10907 10905
10537 10538 10544 10555 10568 10582 10601 10623 10646 10670 10692 10711 10732 10752 10769 10782 10795 10807 10817 10828 10839 10847 10854 10860 10867 10873 10878 10883 10888 10892 10895 10898 10901 10904 10904 10903 10902 10905 10906 10904 10902 10900 10898 10896 10894
10528 10530 10536 10545 10557 10573 10591 10612 10634 10660 10683 10703 10725 10743 10759 10771 10787 10800 10810 10821 10832 10839 10846 10853 10858 10865 10870 10875 10881 10885 10887 10888 10893 10895 10895 10895 10892 10895 10896 10895 10893 10890 10889 10885 10883
10523 10525 10532 10541 10553 10567 10585 10604 10628 10653 10676 10698 10718 10736 10751 10768 10781 10793 10804 10814 10823 10831 10839 10845 10852 10859 10864 10869 10874 10877 10879 10881 10885 10886 10885 10887 10883 10886 10884 10885 10883 10878 10878 10875 10869
10522 10525 10531 10540 10552 10565 10582 10602 10624 10647 10670 10693 10715 10733 10749 10763 10776 10787 10798 10808 10817 10825 10833 10839 10846 10853 10857 10860 10865 10868 10872 10873 10874 10876 10877 10877 10871 10875 10873 10873 10872 10866 10864 10861 10858
10526 10529 10535 10543 10554 10567 10584 10603 10623 10648 10673 10695 10713 10728 10744 10757 10771 10781 10792 10802 10812 10820 10828 10834 10839 10844 10849 10853 10855 10860 10863 10866 10866 10865 10864 10865 10862 10862 10860 10858 10860 10857 10851 10848 10845
10535 10536 10542 10550 10561 10575 10591 10609 10629 10653 10675 10696 10714 10726 10743 10755 10766 10777 10787 10796 10805 10813 10821 10827 10831 10837 10842 10842 10846 10852 10853 10855 10857 10855 10855 10856 10851 10851 10850 10845 10848 10847 10838 10835 10830
10545 10547 10551 10559 10569 10583 10599 10617 10636 10658 10678 10693 10708 10726 10740 10752 10763 10772 10781 10790 10798 10807 10812 10819 10825 10829 10831 10834 10839 10843 10844 10844 10848 10848 10848 10846 10839 10837 10836 10830 10834 10835 10830 10824 10817
10556 10558 10562 10569 10579 10591 10606 10622 10641 10660 10678 10695 10710 10726 10738 10748 10758 10767 10776 10784 10793 10800 10806 10812 10816 10820 10824 10827 10831 10832 10833 10835 10838 10836 10838 10837 10832 10825 10823 10821 10820 10820 10817 10812 10804
10569 10571 10575 10580 10589 10600 10613 10628 10643 10662 10680 10698 10712 10724 10734 10744 10755 10763 10772 10780 10788 10794 10799 10805 10808 10812 10816 10819 10821 10822 10822 10824 10826 10827 10826 10823 10828 10808 10811 10809 10809 10806 10804 10798 10791
10582 10583 10588 10594 10601 10611 10625 10638 10652 10668 10686 10701 10712 10723 10733 10743 10752 10760 10768 10776 10782 10787 10794 10797 10801 10805 10807 10808 10811 10811 10812 10814 10815 10815 10815 10808 10817 10798 10795 10794 10793 10790 10786 10783 10779
10596 10597 10601 10607 10614 10624 10635 10648 10662 10676 10690 10702 10713 10722 10732 10742 10749 10757 10764 10771 10776 10781 10786 10789 10792 10795 10796 10798 10800 10801 10800 10802 10803 10802 10802 10796 10798 10792 10785 10779 10775 10772 10769 10766 10761
10611 10612 10615 10621 10628 10636 10647 10659 10672 10683 10694 10704 10713 10722 10730 10738 10746 10753 10759 10764 10769 10773 10778 10782 10783 10783 10786 10787 10790 10789 10787 10789 10791 10788 10785 10782 10781 10777 10773 10766 10760 10757 10753 10748 10742
10627 10626 10628 10634 10640 10648 10657 10667 10679 10689 10698 10706 10714 10722 10730 10737 10743 10749 10753 10756 10761 10766 10770 10772 10773 10772 10775 10777 10776 10776 10775 10774 10776 10773 10770 10765 10765 10761 10757 10753 10746 10741 10735 10728 10720
10640 10641 10642 10645 10651 10657 10665 10673 10682 10691 10699 10707 10715 10722 10728 10733 10739 10743 10747 10750 10754 10758 10761 10762 10761 10761 10763 10764 10764 10762 10761 10758 10758 10757 10755 10750 10747 10743 10741 10738 10731 10724 10718 10710 10703
10650 10652 10653 10657 10660 10665 10671 10680 10687 10694 10701 10707 10713 10719 10723 10728 10734 10737 10739 10743 10747 10748 10749 10751 10751 10749 10749 10751 10750 10748 10745 10743 10740 10740 10738 10734 10730 10726 10723 10721 10716 10711 10704 10696 10688
10656 10658 10660 10663 10667 10672 10678 10685 10690 10696 10701 10706 10712 10715 10719 10724 10728 10728 10731 10735 10734 10736 10737 10737 10737 10735 10735 10735 10734 10732 10730 10728 10726 10723 10721 10719 10713 10710 10706 10701 10699 10693 10685 10677 10672
10660 10662 10664 10667 10670 10674 10679 10684 10688 10693 10697 10702 10706 10709 10712 10717 10718 10719 10722 10723 10723 10723 10724 10725 10724 10723 10722 10721 10719 10717 10715 10712 10710 10708 10706 10701 10702 10692 10690 10684 10680 10672 10664 10659 10653
10662 10664 10666 10668 10670 10674 10678 10681 10685 10689 10693 10696 10700 10702 10704 10707 10709 10709 10710 10712 10712 10712 10713 10713 10712 10711 10709 10708 10706 10703 10700 10698 10696 10693 10688 10687 10679 10677 10672 10670 10660 10652 10649 10644 10640
10663 10665 10666 10668 10671 10673 10675 10678 10680 10684 10686 10689 10692 10694 10696 10698 10699 10700 10701 10701 10701 10702 10702 10701 10700 10698 10696 10695 10693 10689 10685 10684 10682 10679 10676 10668 10663 10653 10654 10647 10639 10635 10630 10625 10617
10660 10663 10665 10666 10668 10670 10672 10675 10677 10679 10681 10684 10685 10686 10687 10690 10690 10691 10691 10691 10691 10691 10690 10689 10687 10685 10684 10683 10680 10676 10671 10669 10667 10663 10663 10654 10646 10637 10628 10623 10618 10615 10612 10604 10593
10655 10658 10660 10661 10663 10665 10668 10670 10671 10673 10675 10677 10678 10679 10680 10681 10680 10681 10681 10681 10680 10679 10678 10676 10675 10673 10671 10669 10667 10663 10659 10655 10650 10648 10643 10637 10628 10620 10611 10601 10598 10597 10591 10580 10572
10648 10651 10653 10656 10657 10660 10662 10663 10665 10666 10667 10669 10670 10670 10671 10671 10671 10671 10670 10669 10668 10667 10665 10663 10662 10660 10658 10652 10651 10649 10643 10639 10635 10630 10623 10615 10608 10599 10592 10586 10581 10572 10565 10557 10548